Time,TemperatureF,DewpointF,PressureIn,WindDirection,WindDirectionDegrees,WindSpeedMPH,WindSpeedGustMPH,Humidity,HourlyPrecipIn,Conditions,Clouds,dailyrainin,SoftwareType,DateUTC
2013-03-09 00:00:00,33.4,23.2,29.92,NE,45,2.9,2.9,66,0.00,,,0.13,WUHU21623XXSP,2013-03-09 05:00:00,
2013-03-09 00:05:00,33.4,23.2,29.92,NE,45,0.0,2.9,66,0.00,,,0.00,WUHU21623XXSP,2013-03-09 05:05:00,
2013-03-09 00:10:00,33.4,23.2,29.92,NE,45,0.0,2.9,66,0.00,,,0.00,WUHU21623XXSP,2013-03-09 05:10:00,
2013-03-09 00:15:00,33.4,23.2,29.92,NE,45,0.0,0.0,66,0.00,,,0.00,WUHU21623XXSP,2013-03-09 05:15:00,
2013-03-09 00:20:00,33.6,23.4,29.92,NE,45,0.0,0.0,66,0.00,,,0.00,WUHU21623XXSP,2013-03-09 05:20:00,
2013-03-09 00:25:00,33.6,23.0,29.92,NNE,22,0.0,0.0,65,0.00,,,0.00,WUHU21623XXSP,2013-03-09 05:25:00,
2013-03-09 00:30:00,33.6,23.0,29.92,NNE,22,0.0,0.0,65,0.00,,,0.00,WUHU21623XXSP,2013-03-09 05:30:00,
2013-03-09 00:35:00,33.6,23.0,29.92,NNE,22,0.0,0.0,65,0.00,,,0.00,WUHU21623XXSP,2013-03-09 05:35:00,
2013-03-09 00:40:00,33.6,23.0,29.92,NNE,22,1.8,1.8,65,0.00,,,0.00,WUHU21623XXSP,2013-03-09 05:40:00,
2013-03-09 00:45:00,33.6,23.0,29.92,NE,45,0.0,1.8,65,0.00,,,0.00,WUHU21623XXSP,2013-03-09 05:45:00,
2013-03-09 00:50:00,33.6,22.7,29.92,NNE,22,0.0,0.0,64,0.00,,,0.00,WUHU21623XXSP,2013-03-09 05:50:00,
2013-03-09 00:55:00,33.6,22.7,29.92,NE,45,0.0,0.0,64,0.00,,,0.00,WUHU21623XXSP,2013-03-09 05:55:00,
2013-03-09 01:00:00,33.6,22.7,29.92,North,0,1.1,1.1,64,0.00,,,0.00,WUHU21623XXSP,2013-03-09 06:00:00,
2013-03-09 01:05:00,33.6,22.7,29.92,North,0,0.0,1.1,64,0.00,,,0.00,WUHU21623XXSP,2013-03-09 06:05:00,
2013-03-09 01:10:00,33.6,22.7,29.92,North,0,0.0,1.1,64,0.00,,,0.00,WUHU21623XXSP,2013-03-09 06:10:00,
2013-03-09 01:15:00,33.6,22.7,29.92,NNE,22,0.0,0.0,64,0.00,,,0.00,WUHU21623XXSP,2013-03-09 06:15:00,
2013-03-09 01:20:00,33.6,22.7,29.92,NNE,22,0.0,0.0,64,0.00,,,0.00,WUHU21623XXSP,2013-03-09 06:20:00,
2013-03-09 01:25:00,33.4,22.5,29.92,NNE,22,0.0,0.0,64,0.00,,,0.00,WUHU21623XXSP,2013-03-09 06:25:00,
2013-03-09 01:30:00,33.3,22.5,29.92,NNE,22,0.0,0.0,64,0.00,,,0.00,WUHU21623XXSP,2013-03-09 06:30:00,
2013-03-09 01:35:00,33.1,22.2,29.92,NNE,22,0.0,0.0,64,0.00,,,0.00,WUHU21623XXSP,2013-03-09 06:35:00,
2013-03-09 01:40:00,32.7,22.2,29.92,NE,45,0.0,0.0,65,0.00,,,0.00,WUHU21623XXSP,2013-03-09 06:40:00,
2013-03-09 01:45:00,32.7,22.2,29.92,NE,45,0.0,0.0,65,0.00,,,0.00,WUHU21623XXSP,2013-03-09 06:45:00,
2013-03-09 01:50:00,32.4,21.9,29.92,NE,45,0.0,0.0,65,0.00,,,0.00,WUHU21623XXSP,2013-03-09 06:50:00,
2013-03-09 01:55:00,32.2,21.7,29.93,NE,45,0.0,0.0,65,0.00,,,0.00,WUHU21623XXSP,2013-03-09 06:55:00,
2013-03-09 02:00:00,32.2,21.7,29.92,NE,45,0.0,0.0,65,0.00,,,0.00,WUHU21623XXSP,2013-03-09 07:00:00,
2013-03-09 02:05:00,32.0,21.6,29.92,NE,45,0.0,0.0,65,0.00,,,0.00,WUHU21623XXSP,2013-03-09 07:05:00,
2013-03-09 02:10:00,31.8,21.4,29.92,NE,45,0.0,0.0,65,0.00,,,0.00,WUHU21623XXSP,2013-03-09 07:10:00,
2013-03-09 02:15:00,32.0,21.6,29.92,NE,45,0.0,0.0,65,0.00,,,0.00,WUHU21623XXSP,2013-03-09 07:15:00,
2013-03-09 02:20:00,32.2,21.7,29.92,NE,45,0.0,0.0,65,0.00,,,0.00,WUHU21623XXSP,2013-03-09 07:20:00,
2013-03-09 02:25:00,32.2,21.7,29.92,NE,45,0.0,0.0,65,0.00,,,0.00,WUHU21623XXSP,2013-03-09 07:25:00,
2013-03-09 02:30:00,32.2,21.7,29.92,NE,45,0.0,0.0,65,0.00,,,0.00,WUHU21623XXSP,2013-03-09 07:30:00,
2013-03-09 02:35:00,31.8,21.4,29.92,NE,45,0.0,0.0,65,0.00,,,0.00,WUHU21623XXSP,2013-03-09 07:35:00,
2013-03-09 02:40:00,31.8,21.4,29.92,NE,45,0.0,0.0,65,0.00,,,0.00,WUHU21623XXSP,2013-03-09 07:40:00,
2013-03-09 02:45:00,31.6,21.2,29.92,NE,45,0.0,0.0,65,0.00,,,0.00,WUHU21623XXSP,2013-03-09 07:45:00,
2013-03-09 02:50:00,31.3,20.8,29.92,NE,45,0.0,0.0,65,0.00,,,0.00,WUHU21623XXSP,2013-03-09 07:50:00,
2013-03-09 02:55:00,31.1,20.8,29.92,NE,45,0.0,0.0,66,0.00,,,0.00,WUHU21623XXSP,2013-03-09 07:55:00,
2013-03-09 03:00:00,30.9,20.8,29.92,NE,45,0.0,0.0,66,0.00,,,0.00,WUHU21623XXSP,2013-03-09 08:00:00,
2013-03-09 03:05:00,30.6,20.5,29.91,NE,45,0.0,0.0,66,0.00,,,0.00,WUHU21623XXSP,2013-03-09 08:05:00,
2013-03-09 03:10:00,30.4,20.3,29.91,NE,45,0.0,0.0,66,0.00,,,0.00,WUHU21623XXSP,2013-03-09 08:10:00,
2013-03-09 03:15:00,30.0,20.0,29.92,NE,45,0.0,0.0,66,0.00,,,0.00,WUHU21623XXSP,2013-03-09 08:15:00,
2013-03-09 03:20:00,29.8,20.2,29.92,NE,45,0.0,0.0,67,0.00,,,0.00,WUHU21623XXSP,2013-03-09 08:20:00,
2013-03-09 03:25:00,29.5,20.2,29.92,NE,45,0.0,0.0,68,0.00,,,0.00,WUHU21623XXSP,2013-03-09 08:25:00,
2013-03-09 03:30:00,29.1,19.9,29.92,NE,45,0.0,0.0,68,0.00,,,0.00,WUHU21623XXSP,2013-03-09 08:30:00,
2013-03-09 03:35:00,28.9,19.9,29.92,NE,45,0.0,0.0,68,0.00,,,0.00,WUHU21623XXSP,2013-03-09 08:35:00,
2013-03-09 03:40:00,28.8,19.9,29.92,NE,45,0.0,0.0,69,0.00,,,0.00,WUHU21623XXSP,2013-03-09 08:40:00,
2013-03-09 03:45:00,28.6,19.7,29.92,NE,45,0.0,0.0,69,0.00,,,0.00,WUHU21623XXSP,2013-03-09 08:45:00,
2013-03-09 03:50:00,28.2,19.8,29.92,NE,45,0.0,0.0,70,0.00,,,0.00,WUHU21623XXSP,2013-03-09 08:50:00,
2013-03-09 03:55:00,28.0,19.6,29.92,NE,45,0.0,0.0,70,0.00,,,0.00,WUHU21623XXSP,2013-03-09 08:55:00,
2013-03-09 04:00:00,28.0,19.6,29.92,NE,45,0.0,0.0,70,0.00,,,0.00,WUHU21623XXSP,2013-03-09 09:00:00,
2013-03-09 04:05:00,28.0,19.6,29.93,NE,45,0.0,0.0,70,0.00,,,0.00,WUHU21623XXSP,2013-03-09 09:05:00,
2013-03-09 04:10:00,27.7,19.5,29.92,NE,45,0.0,0.0,71,0.00,,,0.00,WUHU21623XXSP,2013-03-09 09:10:00,
2013-03-09 04:15:00,27.7,19.5,29.92,NE,45,0.0,0.0,71,0.00,,,0.00,WUHU21623XXSP,2013-03-09 09:15:00,
2013-03-09 04:20:00,27.3,19.2,29.93,NE,45,0.0,0.0,71,0.00,,,0.00,WUHU21623XXSP,2013-03-09 09:20:00,
2013-03-09 04:25:00,27.1,19.0,29.93,NE,45,0.0,0.0,71,0.00,,,0.00,WUHU21623XXSP,2013-03-09 09:25:00,
2013-03-09 04:30:00,27.1,19.3,29.94,NE,45,0.0,0.0,72,0.00,,,0.00,WUHU21623XXSP,2013-03-09 09:30:00,
2013-03-09 04:35:00,27.1,19.3,29.94,NE,45,0.0,0.0,72,0.00,,,0.00,WUHU21623XXSP,2013-03-09 09:35:00,
2013-03-09 04:40:00,27.0,19.1,29.94,NE,45,0.0,0.0,72,0.00,,,0.00,WUHU21623XXSP,2013-03-09 09:40:00,
2013-03-09 04:45:00,26.8,18.9,29.94,NE,45,0.0,0.0,72,0.00,,,0.00,WUHU21623XXSP,2013-03-09 09:45:00,
2013-03-09 04:50:00,27.1,19.3,29.94,NE,45,0.0,0.0,72,0.00,,,0.00,WUHU21623XXSP,2013-03-09 09:50:00,
2013-03-09 04:55:00,27.3,19.5,29.94,NE,45,0.0,0.0,72,0.00,,,0.00,WUHU21623XXSP,2013-03-09 09:55:00,
2013-03-09 05:00:00,27.5,19.7,29.95,NE,45,0.0,0.0,72,0.00,,,0.00,WUHU21623XXSP,2013-03-09 10:00:00,
2013-03-09 05:05:00,27.5,19.7,29.95,NE,45,0.0,0.0,72,0.00,,,0.00,WUHU21623XXSP,2013-03-09 10:05:00,
2013-03-09 05:10:00,27.5,19.7,29.95,NE,45,0.0,0.0,72,0.00,,,0.00,WUHU21623XXSP,2013-03-09 10:10:00,
2013-03-09 05:15:00,27.5,19.7,29.95,NE,45,0.0,0.0,72,0.00,,,0.00,WUHU21623XXSP,2013-03-09 10:15:00,
2013-03-09 05:20:00,27.3,19.5,29.95,NE,45,0.0,0.0,72,0.00,,,0.00,WUHU21623XXSP,2013-03-09 10:20:00,
2013-03-09 05:25:00,27.1,19.3,29.96,NE,45,0.0,0.0,72,0.00,,,0.00,WUHU21623XXSP,2013-03-09 10:25:00,
2013-03-09 05:30:00,27.1,19.6,29.96,NE,45,0.0,0.0,73,0.00,,,0.00,WUHU21623XXSP,2013-03-09 10:30:00,
2013-03-09 05:35:00,27.1,19.6,29.96,NE,45,0.0,0.0,73,0.00,,,0.00,WUHU21623XXSP,2013-03-09 10:35:00,
2013-03-09 05:40:00,27.0,19.4,29.96,NE,45,0.0,0.0,73,0.00,,,0.00,WUHU21623XXSP,2013-03-09 10:40:00,
2013-03-09 05:45:00,27.0,19.4,29.96,NE,45,0.0,0.0,73,0.00,,,0.00,WUHU21623XXSP,2013-03-09 10:45:00,
2013-03-09 05:50:00,26.8,19.2,29.96,NE,45,0.0,0.0,73,0.00,,,0.00,WUHU21623XXSP,2013-03-09 10:50:00,
2013-03-09 05:54:00,26.8,19.2,29.96,NE,45,0.0,0.0,73,0.00,,,0.00,WUHU21623XXSP,2013-03-09 10:54:00,
2013-03-09 05:59:00,26.6,19.1,29.97,NE,45,0.0,0.0,73,0.00,,,0.00,WUHU21623XXSP,2013-03-09 10:59:00,
2013-03-09 06:04:00,26.6,19.1,29.96,NE,45,0.0,0.0,73,0.00,,,0.00,WUHU21623XXSP,2013-03-09 11:04:00,
2013-03-09 06:09:00,26.4,18.9,29.96,NE,45,0.0,0.0,73,0.00,,,0.00,WUHU21623XXSP,2013-03-09 11:09:00,
2013-03-09 06:14:00,26.4,18.9,29.96,NE,45,0.0,0.0,73,0.00,,,0.00,WUHU21623XXSP,2013-03-09 11:14:00,
2013-03-09 06:19:00,26.4,18.9,29.96,NE,45,0.0,0.0,73,0.00,,,0.00,WUHU21623XXSP,2013-03-09 11:19:00,
2013-03-09 06:24:00,26.4,18.9,29.97,NE,45,0.0,0.0,73,0.00,,,0.00,WUHU21623XXSP,2013-03-09 11:24:00,
2013-03-09 06:29:00,26.2,18.7,29.97,NE,45,0.0,0.0,73,0.00,,,0.00,WUHU21623XXSP,2013-03-09 11:29:00,
2013-03-09 06:34:00,26.2,18.7,29.97,NE,45,0.0,0.0,73,0.00,,,0.00,WUHU21623XXSP,2013-03-09 11:34:00,
2013-03-09 06:39:00,25.9,18.4,29.97,NE,45,0.0,0.0,73,0.00,,,0.00,WUHU21623XXSP,2013-03-09 11:39:00,
2013-03-09 06:44:00,25.7,18.2,29.97,NE,45,0.0,0.0,73,0.00,,,0.00,WUHU21623XXSP,2013-03-09 11:44:00,
2013-03-09 06:49:00,25.7,18.2,29.97,NE,45,0.0,0.0,73,0.00,,,0.00,WUHU21623XXSP,2013-03-09 11:49:00,
2013-03-09 06:54:00,25.5,18.3,29.98,NE,45,0.0,0.0,74,0.00,,,0.00,WUHU21623XXSP,2013-03-09 11:54:00,
2013-03-09 06:59:00,25.5,18.3,29.98,NE,45,0.0,0.0,74,0.00,,,0.00,WUHU21623XXSP,2013-03-09 11:59:00,
2013-03-09 07:04:00,25.5,18.3,29.99,NE,45,0.0,0.0,74,0.00,,,0.00,WUHU21623XXSP,2013-03-09 12:04:00,
2013-03-09 07:09:00,25.5,18.3,29.99,NE,45,0.0,0.0,74,0.00,,,0.00,WUHU21623XXSP,2013-03-09 12:09:00,
2013-03-09 07:14:00,25.7,18.5,30.00,NE,45,0.0,0.0,74,0.00,,,0.00,WUHU21623XXSP,2013-03-09 12:14:00,
2013-03-09 07:19:00,26.1,18.7,30.00,NE,45,0.0,0.0,74,0.00,,,0.00,WUHU21623XXSP,2013-03-09 12:19:00,
2013-03-09 07:24:00,26.4,19.2,29.99,NE,45,0.0,0.0,74,0.00,,,0.00,WUHU21623XXSP,2013-03-09 12:24:00,
2013-03-09 07:29:00,27.1,19.5,30.00,NE,45,0.0,0.0,75,0.00,,,0.00,WUHU21623XXSP,2013-03-09 12:29:00,
2013-03-09 07:34:00,28.0,20.8,30.00,NE,45,0.0,0.0,74,0.00,,,0.00,WUHU21623XXSP,2013-03-09 12:34:00,
2013-03-09 07:39:00,30.0,22.0,30.00,NE,45,0.0,0.0,72,0.00,,,0.00,WUHU21623XXSP,2013-03-09 12:39:00,
2013-03-09 07:44:00,31.1,22.8,30.00,NE,45,0.0,0.0,71,0.00,,,0.00,WUHU21623XXSP,2013-03-09 12:44:00,
2013-03-09 07:49:00,32.4,23.3,30.00,NE,45,0.0,0.0,69,0.00,,,0.00,WUHU21623XXSP,2013-03-09 12:49:00,
2013-03-09 07:54:00,34.0,24.1,29.99,NE,45,0.0,0.0,67,0.00,,,0.00,WUHU21623XXSP,2013-03-09 12:54:00,
2013-03-09 07:59:00,34.9,24.6,30.00,NE,45,0.0,0.0,66,0.00,,,0.00,WUHU21623XXSP,2013-03-09 12:59:00,
2013-03-09 08:04:00,35.8,25.1,30.00,NE,45,0.0,0.0,65,0.00,,,0.00,WUHU21623XXSP,2013-03-09 13:04:00,
2013-03-09 08:09:00,36.9,25.4,30.00,NE,45,0.0,0.0,63,0.00,,,0.00,WUHU21623XXSP,2013-03-09 13:09:00,
2013-03-09 08:14:00,37.4,25.6,30.00,NE,45,0.0,0.0,62,0.00,,,0.00,WUHU21623XXSP,2013-03-09 13:14:00,
2013-03-09 08:19:00,37.9,25.7,29.99,NE,45,0.0,0.0,61,0.00,,,0.00,WUHU21623XXSP,2013-03-09 13:19:00,
2013-03-09 08:24:00,38.8,25.7,29.99,NE,45,0.0,0.0,59,0.00,,,0.00,WUHU21623XXSP,2013-03-09 13:24:00,
2013-03-09 08:29:00,39.4,25.8,29.99,NE,45,0.0,0.0,58,0.00,,,0.00,WUHU21623XXSP,2013-03-09 13:29:00,
2013-03-09 08:34:00,39.6,25.5,29.99,NNE,22,0.0,0.0,57,0.00,,,0.00,WUHU21623XXSP,2013-03-09 13:34:00,
2013-03-09 08:39:00,39.9,24.9,30.00,North,0,0.0,0.0,55,0.00,,,0.00,WUHU21623XXSP,2013-03-09 13:39:00,
2013-03-09 08:44:00,40.3,25.3,30.00,NNE,22,0.0,0.0,55,0.00,,,0.00,WUHU21623XXSP,2013-03-09 13:44:00,
2013-03-09 08:49:00,40.8,25.6,30.00,NNE,22,0.0,0.0,54,0.00,,,0.00,WUHU21623XXSP,2013-03-09 13:49:00,
2013-03-09 08:54:00,41.5,25.2,30.00,ENE,67,0.0,2.7,53,0.00,,,0.00,WUHU21623XXSP,2013-03-09 13:54:00,
2013-03-09 08:59:00,41.9,25.8,30.00,WNW,292,0.0,2.7,52,0.00,,,0.00,WUHU21623XXSP,2013-03-09 13:59:00,
2013-03-09 09:04:00,42.1,24.8,30.00,North,0,7.8,7.8,50,0.00,,,0.00,WUHU21623XXSP,2013-03-09 14:04:00,
2013-03-09 09:09:00,42.1,24.3,30.00,NNE,22,7.8,8.9,49,0.00,,,0.00,WUHU21623XXSP,2013-03-09 14:09:00,
2013-03-09 09:14:00,42.4,24.6,30.00,North,0,2.0,8.9,49,0.00,,,0.00,WUHU21623XXSP,2013-03-09 14:14:00,
2013-03-09 09:19:00,43.0,25.1,30.00,NE,45,4.7,4.7,49,0.00,,,0.00,WUHU21623XXSP,2013-03-09 14:19:00,
2013-03-09 09:24:00,43.5,24.8,29.99,NNE,22,3.6,7.4,49,0.00,,,0.00,WUHU21623XXSP,2013-03-09 14:24:00,
2013-03-09 09:29:00,44.1,25.0,30.00,North,0,2.9,7.4,47,0.00,,,0.00,WUHU21623XXSP,2013-03-09 14:29:00,
2013-03-09 09:34:00,44.4,25.4,30.00,NNW,337,0.0,2.9,47,0.00,,,0.00,WUHU21623XXSP,2013-03-09 14:34:00,
2013-03-09 09:39:00,45.3,25.6,30.00,NNE,22,0.0,2.5,46,0.00,,,0.00,WUHU21623XXSP,2013-03-09 14:39:00,
2013-03-09 09:44:00,45.5,25.8,30.00,NNE,22,0.0,0.0,46,0.00,,,0.00,WUHU21623XXSP,2013-03-09 14:44:00,
2013-03-09 09:49:00,45.7,25.4,30.00,NNE,22,7.4,7.4,45,0.00,,,0.00,WUHU21623XXSP,2013-03-09 14:49:00,
2013-03-09 09:54:00,45.5,24.7,30.00,NNE,22,3.4,7.4,44,0.00,,,0.00,WUHU21623XXSP,2013-03-09 14:54:00,
2013-03-09 09:59:00,45.7,24.9,30.00,NNW,337,0.0,7.4,44,0.00,,,0.00,WUHU21623XXSP,2013-03-09 14:59:00,
2013-03-09 10:04:00,46.0,25.0,30.00,NNW,337,0.0,2.9,44,0.00,,,0.00,WUHU21623XXSP,2013-03-09 15:04:00,
2013-03-09 10:09:00,46.4,25.5,30.00,NNE,22,2.0,2.0,44,0.00,,,0.00,WUHU21623XXSP,2013-03-09 15:09:00,
2013-03-09 10:14:00,46.8,25.8,30.00,NNE,22,1.3,2.0,44,0.00,,,0.00,WUHU21623XXSP,2013-03-09 15:14:00,
2013-03-09 10:19:00,47.1,26.2,30.01,North,0,0.9,2.7,44,0.00,,,0.00,WUHU21623XXSP,2013-03-09 15:19:00,
2013-03-09 10:24:00,48.0,27.0,30.01,WNW,292,0.0,4.5,44,0.00,,,0.00,WUHU21623XXSP,2013-03-09 15:24:00,
2013-03-09 10:29:00,48.7,27.6,30.00,NNE,22,2.0,4.5,44,0.00,,,0.00,WUHU21623XXSP,2013-03-09 15:29:00,
2013-03-09 10:34:00,48.7,26.5,30.01,NE,45,1.8,2.5,42,0.00,,,0.00,WUHU21623XXSP,2013-03-09 15:34:00,
2013-03-09 10:39:00,48.9,26.2,30.01,NNE,22,2.0,2.0,41,0.00,,,0.00,WUHU21623XXSP,2013-03-09 15:39:00,
2013-03-09 10:44:00,48.9,26.7,30.01,NNE,22,0.0,2.0,42,0.00,,,0.00,WUHU21623XXSP,2013-03-09 15:44:00,
2013-03-09 10:49:00,49.1,26.3,30.01,NNE,22,6.9,6.9,41,0.00,,,0.00,WUHU21623XXSP,2013-03-09 15:49:00,
2013-03-09 10:54:00,48.9,26.2,30.00,NE,45,0.9,6.9,41,0.00,,,0.00,WUHU21623XXSP,2013-03-09 15:54:00,
2013-03-09 10:59:00,48.9,25.6,30.01,NNE,22,0.0,4.0,40,0.00,,,0.00,WUHU21623XXSP,2013-03-09 15:59:00,
2013-03-09 11:04:00,48.7,25.5,30.01,NNE,22,0.0,4.0,40,0.00,,,0.00,WUHU21623XXSP,2013-03-09 16:04:00,
2013-03-09 11:09:00,49.3,26.0,30.01,NNE,22,1.1,1.1,40,0.00,,,0.00,WUHU21623XXSP,2013-03-09 16:09:00,
2013-03-09 11:14:00,49.8,27.0,30.01,North,0,4.9,4.9,41,0.00,,,0.00,WUHU21623XXSP,2013-03-09 16:14:00,
2013-03-09 11:19:00,49.8,27.0,30.01,NNE,22,0.0,4.9,41,0.00,,,0.00,WUHU21623XXSP,2013-03-09 16:19:00,
2013-03-09 11:24:00,50.5,27.6,30.02,WNW,292,0.0,4.9,41,0.00,,,0.00,WUHU21623XXSP,2013-03-09 16:24:00,
2013-03-09 11:29:00,50.9,26.0,30.02,NE,45,0.0,1.8,38,0.00,,,0.00,WUHU21623XXSP,2013-03-09 16:29:00,
2013-03-09 11:34:00,50.4,25.6,30.02,NNE,22,0.0,4.9,38,0.00,,,0.00,WUHU21623XXSP,2013-03-09 16:34:00,
2013-03-09 11:39:00,50.4,26.1,30.02,NNE,22,0.0,4.9,39,0.00,,,0.00,WUHU21623XXSP,2013-03-09 16:39:00,
2013-03-09 11:44:00,50.2,26.1,30.01,North,0,5.8,5.8,39,0.00,,,0.00,WUHU21623XXSP,2013-03-09 16:44:00,
2013-03-09 11:49:00,50.5,26.4,30.02,NE,45,2.5,5.8,39,0.00,,,0.00,WUHU21623XXSP,2013-03-09 16:49:00,
2013-03-09 11:54:00,50.7,25.9,30.02,NNE,22,2.5,5.8,38,0.00,,,0.00,WUHU21623XXSP,2013-03-09 16:54:00,
2013-03-09 11:59:00,50.9,26.0,30.01,NNE,22,0.0,3.1,38,0.00,,,0.00,WUHU21623XXSP,2013-03-09 16:59:00,
2013-03-09 12:04:00,51.4,26.5,30.01,NE,45,3.8,3.8,38,0.00,,,0.00,WUHU21623XXSP,2013-03-09 17:04:00,
2013-03-09 12:09:00,51.4,26.5,30.01,NNE,22,0.0,5.6,38,0.00,,,0.00,WUHU21623XXSP,2013-03-09 17:09:00,
2013-03-09 12:14:00,51.8,26.9,30.01,NNE,22,0.0,5.6,38,0.00,,,0.00,WUHU21623XXSP,2013-03-09 17:14:00,
2013-03-09 12:19:00,52.3,26.7,30.01,NE,45,0.0,3.4,37,0.00,,,0.00,WUHU21623XXSP,2013-03-09 17:19:00,
2013-03-09 12:24:00,52.5,26.8,30.01,NE,45,0.0,3.4,37,0.00,,,0.00,WUHU21623XXSP,2013-03-09 17:24:00,
2013-03-09 12:29:00,52.9,26.5,30.00,NNE,22,0.0,1.1,36,0.00,,,0.00,WUHU21623XXSP,2013-03-09 17:29:00,
2013-03-09 12:34:00,53.4,27.6,30.00,NNE,22,0.0,1.1,37,0.00,,,0.00,WUHU21623XXSP,2013-03-09 17:34:00,
2013-03-09 12:39:00,53.8,27.9,30.00,ENE,67,6.0,6.0,37,0.00,,,0.00,WUHU21623XXSP,2013-03-09 17:39:00,
2013-03-09 12:44:00,53.4,26.3,30.00,NE,45,0.0,6.0,35,0.00,,,0.00,WUHU21623XXSP,2013-03-09 17:44:00,
2013-03-09 12:49:00,53.8,26.6,30.00,NE,45,0.0,1.1,35,0.00,,,0.00,WUHU21623XXSP,2013-03-09 17:49:00,
2013-03-09 12:54:00,53.8,27.2,30.00,NE,45,0.0,0.0,36,0.00,,,0.00,WUHU21623XXSP,2013-03-09 17:54:00,
2013-03-09 12:59:00,54.0,26.7,30.00,NNE,22,0.0,0.0,35,0.00,,,0.00,WUHU21623XXSP,2013-03-09 17:59:00,
2013-03-09 13:04:00,54.0,26.0,29.99,NNE,22,0.7,2.5,34,0.00,,,0.00,WUHU21623XXSP,2013-03-09 18:04:00,
2013-03-09 13:09:00,53.8,26.6,29.99,NNE,22,0.0,2.5,35,0.00,,,0.00,WUHU21623XXSP,2013-03-09 18:09:00,
2013-03-09 13:14:00,54.0,26.0,29.99,East,90,6.5,6.5,34,0.00,,,0.00,WUHU21623XXSP,2013-03-09 18:14:00,
2013-03-09 13:19:00,53.8,25.9,29.99,NE,45,5.6,6.5,34,0.00,,,0.00,WUHU21623XXSP,2013-03-09 18:19:00,
2013-03-09 13:24:00,53.8,26.6,29.99,NE,45,0.0,5.6,35,0.00,,,0.00,WUHU21623XXSP,2013-03-09 18:24:00,
2013-03-09 13:29:00,54.3,26.3,29.99,NNE,22,0.0,0.0,34,0.00,,,0.00,WUHU21623XXSP,2013-03-09 18:29:00,
2013-03-09 13:34:00,54.7,26.6,29.99,NE,45,0.0,2.0,34,0.00,,,0.00,WUHU21623XXSP,2013-03-09 18:34:00,
2013-03-09 13:39:00,55.0,26.2,29.98,NE,45,0.0,2.0,33,0.00,,,0.00,WUHU21623XXSP,2013-03-09 18:39:00,
2013-03-09 13:44:00,55.0,26.9,29.99,NE,45,3.8,3.8,34,0.00,,,0.00,WUHU21623XXSP,2013-03-09 18:44:00,
2013-03-09 13:49:00,55.2,26.4,29.98,North,0,0.0,3.8,33,0.00,,,0.00,WUHU21623XXSP,2013-03-09 18:49:00,
2013-03-09 13:54:00,55.4,26.5,29.98,NNE,22,0.0,0.0,33,0.00,,,0.00,WUHU21623XXSP,2013-03-09 18:54:00,
2013-03-09 13:59:00,55.4,26.5,29.98,NNE,22,1.1,1.1,33,0.00,,,0.00,WUHU21623XXSP,2013-03-09 18:59:00,
2013-03-09 14:04:00,55.4,26.5,29.98,NE,45,2.7,2.7,33,0.00,,,0.00,WUHU21623XXSP,2013-03-09 19:04:00,
2013-03-09 14:09:00,55.4,26.5,29.99,NNE,22,1.8,2.7,33,0.00,,,0.00,WUHU21623XXSP,2013-03-09 19:09:00,
2013-03-09 14:14:00,55.4,26.5,29.98,ENE,67,2.0,3.1,33,0.00,,,0.00,WUHU21623XXSP,2013-03-09 19:14:00,
2013-03-09 14:19:00,55.2,26.4,29.98,NE,45,2.2,3.1,33,0.00,,,0.00,WUHU21623XXSP,2013-03-09 19:19:00,
2013-03-09 14:24:00,55.0,25.5,29.98,SE,135,3.6,3.6,32,0.00,,,0.00,WUHU21623XXSP,2013-03-09 19:24:00,
2013-03-09 14:29:00,54.7,25.9,29.98,NE,45,0.0,3.6,33,0.00,,,0.00,WUHU21623XXSP,2013-03-09 19:29:00,
2013-03-09 14:34:00,54.9,26.1,29.98,NE,45,0.0,2.5,33,0.00,,,0.00,WUHU21623XXSP,2013-03-09 19:34:00,
2013-03-09 14:39:00,54.7,25.9,29.98,NNE,22,0.0,2.5,33,0.00,,,0.00,WUHU21623XXSP,2013-03-09 19:39:00,
2013-03-09 14:44:00,55.0,26.2,29.98,NNE,22,0.0,0.0,33,0.00,,,0.00,WUHU21623XXSP,2013-03-09 19:44:00,
2013-03-09 14:49:00,55.0,26.2,29.98,NE,45,0.0,1.1,33,0.00,,,0.00,WUHU21623XXSP,2013-03-09 19:49:00,
2013-03-09 14:54:00,55.0,26.1,29.98,NNE,22,3.4,3.4,32,0.00,,,0.00,WUHU21623XXSP,2013-03-09 19:54:00,
2013-03-09 14:59:00,54.9,26.1,29.98,NNE,22,0.0,3.4,33,0.00,,,0.00,WUHU21623XXSP,2013-03-09 19:59:00,
2013-03-09 15:04:00,54.7,25.3,29.98,NE,45,0.0,3.4,32,0.00,,,0.00,WUHU21623XXSP,2013-03-09 20:04:00,
2013-03-09 15:09:00,54.7,25.3,29.98,NE,45,0.0,0.0,32,0.00,,,0.00,WUHU21623XXSP,2013-03-09 20:09:00,
2013-03-09 15:14:00,54.3,24.9,29.98,North,0,0.0,2.5,32,0.00,,,0.00,WUHU21623XXSP,2013-03-09 20:14:00,
2013-03-09 15:19:00,53.8,24.7,29.97,North,0,2.5,2.5,32,0.00,,,0.00,WUHU21623XXSP,2013-03-09 20:19:00,
2013-03-09 15:24:00,53.6,24.4,29.98,North,0,4.0,4.0,32,0.00,,,0.00,WUHU21623XXSP,2013-03-09 20:24:00,
2013-03-09 15:29:00,53.4,24.9,29.98,North,0,4.7,4.7,33,0.00,,,0.00,WUHU21623XXSP,2013-03-09 20:29:00,
2013-03-09 15:34:00,53.2,24.7,29.98,NNE,22,0.0,4.7,33,0.00,,,0.00,WUHU21623XXSP,2013-03-09 20:34:00,
2013-03-09 15:39:00,53.2,24.7,29.98,NNE,22,2.2,2.5,33,0.00,,,0.00,WUHU21623XXSP,2013-03-09 20:39:00,
2013-03-09 15:44:00,53.2,25.4,29.98,NNE,22,0.0,2.5,34,0.00,,,0.00,WUHU21623XXSP,2013-03-09 20:44:00,
2013-03-09 15:49:00,52.9,24.4,29.98,NNE,22,0.0,4.9,33,0.00,,,0.00,WUHU21623XXSP,2013-03-09 20:49:00,
2013-03-09 15:54:00,52.9,24.4,29.99,NNE,22,3.4,4.9,33,0.00,,,0.00,WUHU21623XXSP,2013-03-09 20:54:00,
2013-03-09 15:59:00,52.7,24.2,29.99,NNE,22,0.0,3.4,33,0.00,,,0.00,WUHU21623XXSP,2013-03-09 20:59:00,
2013-03-09 16:04:00,52.3,24.8,29.99,NNE,22,0.0,0.0,34,0.00,,,0.00,WUHU21623XXSP,2013-03-09 21:04:00,
2013-03-09 16:09:00,52.2,25.1,29.99,NNE,22,0.0,0.0,35,0.00,,,0.00,WUHU21623XXSP,2013-03-09 21:09:00,
2013-03-09 16:14:00,51.6,25.3,29.99,NE,45,2.5,2.5,36,0.00,,,0.00,WUHU21623XXSP,2013-03-09 21:14:00,
2013-03-09 16:19:00,50.7,26.9,29.99,NE,45,0.0,2.5,40,0.00,,,0.00,WUHU21623XXSP,2013-03-09 21:19:00,
2013-03-09 16:24:00,50.4,27.5,30.00,ESE,112,0.0,1.3,41,0.00,,,0.00,WUHU21623XXSP,2013-03-09 21:24:00,
2013-03-09 16:29:00,49.8,27.5,30.00,ENE,67,3.1,3.1,42,0.00,,,0.00,WUHU21623XXSP,2013-03-09 21:29:00,
2013-03-09 16:34:00,49.1,27.8,30.01,ENE,67,6.0,6.0,44,0.00,,,0.00,WUHU21623XXSP,2013-03-09 21:34:00,
2013-03-09 16:39:00,48.7,27.8,30.01,ENE,67,6.0,6.0,44,0.00,,,0.00,WUHU21623XXSP,2013-03-09 21:39:00,
2013-03-09 16:44:00,48.4,28.4,30.02,East,90,0.0,6.0,46,0.00,,,0.00,WUHU21623XXSP,2013-03-09 21:44:00,
2013-03-09 16:49:00,47.8,27.9,30.02,NE,45,0.0,0.0,46,0.00,,,0.00,WUHU21623XXSP,2013-03-09 21:49:00,
2013-03-09 16:54:00,47.3,27.9,30.02,NE,45,2.9,2.9,47,0.00,,,0.00,WUHU21623XXSP,2013-03-09 21:54:00,
2013-03-09 16:59:00,46.8,28.0,30.02,NE,45,0.0,2.9,48,0.00,,,0.00,WUHU21623XXSP,2013-03-09 21:59:00,
2013-03-09 17:04:00,46.2,28.1,30.02,NE,45,0.0,2.2,49,0.00,,,0.00,WUHU21623XXSP,2013-03-09 22:04:00,
2013-03-09 17:09:00,45.7,27.6,30.02,NE,45,0.0,0.0,49,0.00,,,0.00,WUHU21623XXSP,2013-03-09 22:09:00,
2013-03-09 17:14:00,45.3,27.8,30.03,ENE,67,2.2,2.2,50,0.00,,,0.00,WUHU21623XXSP,2013-03-09 22:14:00,
2013-03-09 17:19:00,44.6,27.9,30.03,ENE,67,0.0,2.2,51,0.00,,,0.00,WUHU21623XXSP,2013-03-09 22:19:00,
2013-03-09 17:24:00,44.1,27.1,30.04,ENE,67,0.0,0.0,51,0.00,,,0.00,WUHU21623XXSP,2013-03-09 22:24:00,
2013-03-09 17:29:00,43.5,27.0,30.04,ENE,67,0.0,0.0,52,0.00,,,0.00,WUHU21623XXSP,2013-03-09 22:29:00,
2013-03-09 17:34:00,42.6,27.1,30.04,ENE,67,0.0,0.0,54,0.00,,,0.00,WUHU21623XXSP,2013-03-09 22:34:00,
2013-03-09 17:39:00,41.9,26.8,30.04,ENE,67,0.0,0.0,55,0.00,,,0.00,WUHU21623XXSP,2013-03-09 22:39:00,
2013-03-09 17:44:00,41.4,26.3,30.05,ENE,67,0.0,0.0,55,0.00,,,0.00,WUHU21623XXSP,2013-03-09 22:44:00,
2013-03-09 17:49:00,40.6,26.1,30.05,ENE,67,0.0,0.0,56,0.00,,,0.00,WUHU21623XXSP,2013-03-09 22:49:00,
2013-03-09 17:54:00,40.1,26.0,30.05,ENE,67,0.0,0.0,57,0.00,,,0.00,WUHU21623XXSP,2013-03-09 22:54:00,
2013-03-09 17:59:00,39.7,26.1,30.05,ENE,67,0.0,0.0,58,0.00,,,0.00,WUHU21623XXSP,2013-03-09 22:59:00,
2013-03-09 18:04:00,39.4,26.1,30.05,ENE,67,0.0,0.0,59,0.00,,,0.00,WUHU21623XXSP,2013-03-09 23:04:00,
2013-03-09 18:09:00,39.0,25.8,30.05,ENE,67,0.0,0.0,59,0.00,,,0.00,WUHU21623XXSP,2013-03-09 23:09:00,
2013-03-09 18:14:00,38.8,26.1,30.05,ENE,67,0.0,0.0,60,0.00,,,0.00,WUHU21623XXSP,2013-03-09 23:14:00,
2013-03-09 18:19:00,38.3,26.0,30.05,ENE,67,0.0,0.0,61,0.00,,,0.00,WUHU21623XXSP,2013-03-09 23:19:00,
2013-03-09 18:24:00,37.9,26.0,30.06,ENE,67,0.0,0.0,62,0.00,,,0.00,WUHU21623XXSP,2013-03-09 23:24:00,
2013-03-09 18:29:00,37.8,25.9,30.05,ENE,67,0.0,0.0,62,0.00,,,0.00,WUHU21623XXSP,2013-03-09 23:29:00,
2013-03-09 18:34:00,37.4,25.6,30.05,ENE,67,0.0,0.0,62,0.00,,,0.00,WUHU21623XXSP,2013-03-09 23:34:00,
2013-03-09 18:39:00,37.2,25.4,30.06,ENE,67,0.0,0.0,62,0.00,,,0.00,WUHU21623XXSP,2013-03-09 23:39:00,
2013-03-09 18:44:00,37.0,25.6,30.06,ENE,67,0.0,0.0,63,0.00,,,0.00,WUHU21623XXSP,2013-03-09 23:44:00,
2013-03-09 18:49:00,36.7,25.6,30.06,ENE,67,0.0,0.0,64,0.00,,,0.00,WUHU21623XXSP,2013-03-09 23:49:00,
2013-03-09 18:54:00,36.5,25.5,30.06,ENE,67,0.0,0.0,64,0.00,,,0.00,WUHU21623XXSP,2013-03-09 23:54:00,
2013-03-09 18:59:00,36.3,25.7,30.06,ENE,67,0.0,0.0,65,0.00,,,0.00,WUHU21623XXSP,2013-03-09 23:59:00,
2013-03-09 19:04:00,36.1,25.5,30.07,ENE,67,0.0,0.0,65,0.00,,,0.00,WUHU21623XXSP,2013-03-10 00:04:00,
2013-03-09 19:09:00,36.0,25.3,30.07,ENE,67,0.0,0.0,65,0.00,,,0.00,WUHU21623XXSP,2013-03-10 00:09:00,
2013-03-09 19:14:00,35.6,25.0,30.07,ENE,67,0.0,0.0,65,0.00,,,0.00,WUHU21623XXSP,2013-03-10 00:14:00,
2013-03-09 19:19:00,35.4,24.8,30.07,ENE,67,0.0,0.0,65,0.00,,,0.00,WUHU21623XXSP,2013-03-10 00:19:00,
2013-03-09 19:24:00,35.2,25.0,30.08,ENE,67,0.0,0.0,66,0.00,,,0.00,WUHU21623XXSP,2013-03-10 00:24:00,
2013-03-09 19:29:00,34.7,24.4,30.08,ENE,67,0.0,0.0,66,0.00,,,0.00,WUHU21623XXSP,2013-03-10 00:29:00,
2013-03-09 19:34:00,34.3,24.1,30.08,ENE,67,0.0,0.0,66,0.00,,,0.00,WUHU21623XXSP,2013-03-10 00:34:00,
2013-03-09 19:39:00,34.2,23.9,30.08,ENE,67,0.0,0.0,66,0.00,,,0.00,WUHU21623XXSP,2013-03-10 00:39:00,
2013-03-09 19:44:00,33.6,23.5,30.09,ENE,67,0.0,0.0,67,0.00,,,0.00,WUHU21623XXSP,2013-03-10 00:44:00,
2013-03-09 19:49:00,33.4,23.6,30.09,ENE,67,0.0,0.0,67,0.00,,,0.00,WUHU21623XXSP,2013-03-10 00:49:00,
2013-03-09 19:54:00,33.1,23.3,30.09,ENE,67,0.0,0.0,67,0.00,,,0.00,WUHU21623XXSP,2013-03-10 00:54:00,
2013-03-09 19:59:00,32.7,23.3,30.09,ENE,67,0.0,0.0,68,0.00,,,0.00,WUHU21623XXSP,2013-03-10 00:59:00,
2013-03-09 20:04:00,32.7,23.3,30.09,ENE,67,0.0,0.0,68,0.00,,,0.00,WUHU21623XXSP,2013-03-10 01:04:00,
2013-03-09 20:09:00,32.4,23.0,30.09,ENE,67,0.0,0.0,68,0.00,,,0.00,WUHU21623XXSP,2013-03-10 01:09:00,
2013-03-09 20:14:00,32.2,22.8,30.09,ENE,67,0.0,0.0,68,0.00,,,0.00,WUHU21623XXSP,2013-03-10 01:14:00,
2013-03-09 20:19:00,31.8,22.8,30.09,ENE,67,0.0,0.0,69,0.00,,,0.00,WUHU21623XXSP,2013-03-10 01:19:00,
2013-03-09 20:24:00,31.6,22.6,30.09,ENE,67,0.0,0.0,69,0.00,,,0.00,WUHU21623XXSP,2013-03-10 01:24:00,
2013-03-09 20:29:00,31.3,22.3,30.09,ENE,67,0.0,0.0,69,0.00,,,0.00,WUHU21623XXSP,2013-03-10 01:29:00,
2013-03-09 20:34:00,31.1,22.1,30.09,ENE,67,0.0,0.0,69,0.00,,,0.00,WUHU21623XXSP,2013-03-10 01:34:00,
2013-03-09 20:39:00,30.9,21.9,30.10,ENE,67,0.0,0.0,69,0.00,,,0.00,WUHU21623XXSP,2013-03-10 01:39:00,
2013-03-09 20:44:00,30.7,22.1,30.10,ENE,67,0.0,0.0,70,0.00,,,0.00,WUHU21623XXSP,2013-03-10 01:44:00,
2013-03-09 20:49:00,30.7,22.4,30.10,ENE,67,0.0,0.0,71,0.00,,,0.00,WUHU21623XXSP,2013-03-10 01:49:00,
2013-03-09 20:54:00,30.6,22.2,30.10,ENE,67,0.0,0.0,71,0.00,,,0.00,WUHU21623XXSP,2013-03-10 01:54:00,
2013-03-09 20:59:00,30.2,21.9,30.10,ENE,67,0.0,0.0,71,0.00,,,0.00,WUHU21623XXSP,2013-03-10 01:59:00,
2013-03-09 21:04:00,30.0,21.7,30.10,ENE,67,0.0,0.0,71,0.00,,,0.00,WUHU21623XXSP,2013-03-10 02:04:00,
2013-03-09 21:09:00,30.0,21.7,30.10,ENE,67,0.0,0.0,71,0.00,,,0.00,WUHU21623XXSP,2013-03-10 02:09:00,
2013-03-09 21:15:00,29.8,21.9,30.10,ENE,67,0.0,0.0,72,0.00,,,0.00,WUHU21623XXSP,2013-03-10 02:15:00,
2013-03-09 21:20:00,29.7,21.7,30.10,ENE,67,0.0,0.0,72,0.00,,,0.00,WUHU21623XXSP,2013-03-10 02:20:00,
2013-03-09 21:25:00,29.5,21.5,30.10,ENE,67,0.0,0.0,72,0.00,,,0.00,WUHU21623XXSP,2013-03-10 02:25:00,
2013-03-09 21:30:00,29.3,21.4,30.10,ENE,67,0.0,0.0,72,0.00,,,0.00,WUHU21623XXSP,2013-03-10 02:30:00,
2013-03-09 21:35:00,29.1,21.2,30.10,ENE,67,0.0,0.0,72,0.00,,,0.00,WUHU21623XXSP,2013-03-10 02:35:00,
2013-03-09 21:40:00,29.1,21.2,30.10,ENE,67,0.0,0.0,72,0.00,,,0.00,WUHU21623XXSP,2013-03-10 02:40:00,
2013-03-09 21:44:00,28.8,20.9,30.10,ENE,67,0.0,0.0,72,0.00,,,0.00,WUHU21623XXSP,2013-03-10 02:44:00,
2013-03-09 21:50:00,28.6,21.0,30.10,ENE,67,0.0,0.0,73,0.00,,,0.00,WUHU21623XXSP,2013-03-10 02:50:00,
2013-03-09 21:55:00,28.6,21.0,30.10,ENE,67,0.0,0.0,73,0.00,,,0.00,WUHU21623XXSP,2013-03-10 02:55:00,
2013-03-09 22:00:00,28.2,20.7,30.10,ENE,67,0.0,0.0,73,0.00,,,0.00,WUHU21623XXSP,2013-03-10 03:00:00,
2013-03-09 22:05:00,28.2,20.7,30.10,ENE,67,0.0,0.0,73,0.00,,,0.00,WUHU21623XXSP,2013-03-10 03:05:00,
2013-03-09 22:10:00,28.0,20.5,30.10,ENE,67,0.0,0.0,73,0.00,,,0.00,WUHU21623XXSP,2013-03-10 03:10:00,
2013-03-09 22:15:00,27.7,20.1,30.10,ENE,67,0.0,0.0,73,0.00,,,0.00,WUHU21623XXSP,2013-03-10 03:15:00,
2013-03-09 22:20:00,27.7,20.1,30.10,ENE,67,0.0,0.0,73,0.00,,,0.00,WUHU21623XXSP,2013-03-10 03:20:00,
2013-03-09 22:25:00,27.7,20.4,30.10,ENE,67,0.0,0.0,74,0.00,,,0.00,WUHU21623XXSP,2013-03-10 03:25:00,
2013-03-09 22:30:00,27.5,20.3,30.10,ENE,67,0.0,0.0,74,0.00,,,0.00,WUHU21623XXSP,2013-03-10 03:30:00,
2013-03-09 22:35:00,27.5,20.6,30.10,ENE,67,0.0,0.0,75,0.00,,,0.00,WUHU21623XXSP,2013-03-10 03:35:00,
2013-03-09 22:40:00,27.1,20.2,30.10,ENE,67,0.0,0.0,75,0.00,,,0.00,WUHU21623XXSP,2013-03-10 03:40:00,
2013-03-09 22:45:00,27.1,20.2,30.10,ENE,67,0.0,0.0,75,0.00,,,0.00,WUHU21623XXSP,2013-03-10 03:45:00,
2013-03-09 22:50:00,27.0,20.0,30.10,ENE,67,0.0,0.0,75,0.00,,,0.00,WUHU21623XXSP,2013-03-10 03:50:00,
2013-03-09 22:55:00,27.0,20.0,30.10,ENE,67,0.0,0.0,75,0.00,,,0.00,WUHU21623XXSP,2013-03-10 03:55:00,
2013-03-09 23:00:00,26.8,19.9,30.10,ENE,67,0.0,0.0,75,0.00,,,0.00,WUHU21623XXSP,2013-03-10 04:00:00,
2013-03-09 23:05:00,26.6,19.7,30.10,ENE,67,0.0,0.0,75,0.00,,,0.00,WUHU21623XXSP,2013-03-10 04:05:00,
2013-03-09 23:10:00,26.4,19.5,30.10,ENE,67,0.0,0.0,75,0.00,,,0.00,WUHU21623XXSP,2013-03-10 04:10:00,
2013-03-09 23:15:00,26.4,19.5,30.10,ENE,67,0.0,0.0,75,0.00,,,0.00,WUHU21623XXSP,2013-03-10 04:15:00,
2013-03-09 23:20:00,26.2,19.3,30.11,ENE,67,0.0,0.0,75,0.00,,,0.00,WUHU21623XXSP,2013-03-10 04:20:00,
2013-03-09 23:25:00,26.2,19.6,30.11,ENE,67,0.0,0.0,76,0.00,,,0.00,WUHU21623XXSP,2013-03-10 04:25:00,
2013-03-09 23:30:00,26.2,19.6,30.11,ENE,67,0.0,0.0,76,0.00,,,0.00,WUHU21623XXSP,2013-03-10 04:30:00,
2013-03-09 23:35:00,25.9,19.3,30.12,ENE,67,0.0,0.0,76,0.00,,,0.00,WUHU21623XXSP,2013-03-10 04:35:00,
2013-03-09 23:40:00,25.7,19.1,30.11,ENE,67,0.0,0.0,76,0.00,,,0.00,WUHU21623XXSP,2013-03-10 04:40:00,
2013-03-09 23:45:00,25.7,19.1,30.11,ENE,67,0.0,0.0,76,0.00,,,0.00,WUHU21623XXSP,2013-03-10 04:45:00,
2013-03-09 23:50:00,25.5,18.9,30.11,ENE,67,0.0,0.0,76,0.00,,,0.00,WUHU21623XXSP,2013-03-10 04:50:00,
2013-03-09 23:55:00,25.5,18.9,30.11,ENE,67,0.0,0.0,76,0.00,,,0.00,WUHU21623XXSP,2013-03-10 04:55:00,